Regional Weather Roundup
Issued by NWS

Home | Current Version | Previous Version | Graphics & Text | Print | Product List | Glossary On
Versions: 1 2 3 4 5 6 7 8 9 10 11 12 13 14 15 16 17 18 19 20 21 22 23 24 25 26 27 28 29 30 31 32 33 34 35 36 37 38 39 40 41 42 43 44 45 46 47 48 49 50
000
ASUS43 KFSD 161210
RWRSD

WEATHER ROUNDUP FOR SOUTH DAKOTA
NATIONAL WEATHER SERVICE SIOUX FALLS SD
700 AM CDT WED AUG 16 2017

NOTE: "FAIR" INDICATES FEW OR NO CLOUDS BELOW 12,000 FEET WITH NO
SIGNIFICANT WEATHER AND/OR OBSTRUCTIONS TO VISIBILITY.


SDZ001>005-009-010-012>017-161300-
NORTHWEST AND NORTH CENTRAL SOUTH DAKOTA

CITY           SKY/WX    TMP DP  RH WIND       PRES   REMARKS
BUFFALO          N/A     53  52  96 NW6       29.92R
FAITH            N/A     60  60 100 N17       29.91R
MOBRIDGE       CLOUDY    63  61  93 NW12      29.84F
$$

SDZ012>016-024>037-041>051-057-063-072>074-161300-
SOUTHWEST AND SOUTH CENTRAL SOUTH DAKOTA

CITY           SKY/WX    TMP DP  RH WIND       PRES   REMARKS
RAPID CTY ARPT MOCLDY    60  54  80 NW13      29.96R
PIERRE         CLOUDY    65  63  93 N10       29.84R
CUSTER         CLOUDY    52  43  71 VRB5      30.05S
ELLSWORTH AFB  CLOUDY    60  56  87 N12       29.96R
PHILIP         CLOUDY    63  62  97 NW7       29.90R
PINE RIDGE     CLOUDY    61  58  90 W6        29.95R
SPEARFISH      FAIR      55  52  88 W7        30.02S
WINNER         FAIR      66  63  90 W6        29.83R
$$

SDZ004>011-016>023-039-040-161300-
NORTHEAST SOUTH DAKOTA

CITY           SKY/WX    TMP DP  RH WIND       PRES   REMARKS
ABERDEEN       CLOUDY    65  65 100 W3        29.82F FOG
WATERTOWN      CLOUDY    65  65 100 CALM      29.84S FOG
BROOKINGS      CLOUDY    64  63  96 S6        29.85S
SISSETON         N/A     64  64 100 SE5       29.83F
$$

SDZ017-020-022-023-036>040-048>070-161300-
SOUTHEAST SOUTH DAKOTA

CITY           SKY/WX    TMP DP  RH WIND       PRES   REMARKS
SIOUX FALLS    LGT RAIN  65  65 100 E6        29.83F FOG
HURON          CLOUDY    65  65 100 CALM      29.81S
CHAMBERLAIN    CLOUDY    65  65 100 CALM      29.81R
MITCHELL       CLOUDY    65  65 100 E5        29.81F FOG
YANKTON        CLOUDY    65  64  97 E5        29.81F
$$

ABBREVIATIONS USED IN REMARKS
   TC - TEMPERATURE IN CELSIUS
  WCI - WIND CHILL INDEX
   HX - HEAT INDEX
  VSB - VISIBILITY





USA.gov is the U.S. government's official web portal to all federal, state and local government web resources and services.